METEOR 2-11 DEB, 42453

Orbit data source: Space-Track

METEOR 2-11 DEB, 42453 is space debris in LEO originally from a launch on Thu, 05 Jul 1984 UTC launched from the Plesetsk Missile And Space Complex (PKMTR). Debris objects in space refer to the collection of defunct objects orbiting the Earth. Examples of debris include non-operational satellites, rocket bodies, and fragments generated from explosions, collisions, or faulty payload assembly.

Loading next visibility...
Identifier
42453, 1984-072P
Orbit
LEO
Country
Flag of CISCIS
Related business
Manufacturer
Unknown
Mission
Spacecraft
Bus & Motor
Unknown
Mass
Unknown
Launch date (UTC)
1984-07-05 (41 years ago)
Launch vehicle
Unknown
Launch site
Plesetsk Missile And Space Complex (PKMTR)
Object type
Payload
Rocket body
Debris
Shape & HBR
Unknown shape, 0.1 m
Radar Cross Section
Small (<0.1 m²)

Expand to show TLE details & history
Last TLE update: 4 days ago

TLE from 4 days ago
0 METEOR 2-11 DEB
1 42453U 84072P   25344.25466176  .00003382  00000-0  24095-2 0  9992
2 42453  82.5264 170.9914 0006789 148.7098 211.4475 13.97140481550973
Epoch: 2025-12-10T06:06Z
TLE epoch observation values (Epoch: 2025-12-10T06:06:42.776Z)
Latitude
0.00004°
Longitude
0.08555°
Altitude
910.853 km
Speed
7.394 km/s
True Right ascension
11h 23m 57s
True Declination
0° 00' 00"
Sunlit
Object was in daylight at epoch
Visualization orbit readout
Latitude
Unknown
Longitude
Unknown
Altitude
Unknown
Speed
Unknown
Apparent Right ascension
Unknown
Apparent Declination
Unknown
Sunlit
N/A
Visualization observer readout
Local Sidereal Time
07:43:25
Azimuth
Unknown
Elevation
Unknown
Doppler factor
Unknown
Orbital elements
Apogee altitude
905.79 km
Perigee altitude
895.907 km
Semi-major axis
7,278.986 km
Eccentricity
0.00068
Inclination
82.5264°
RAAN
170.9914°
Arg. of periapsis
148.7098°
True anomaly
211.40694°
Mean anomaly
211.4475°
Eccentric anomaly
211.42722°
Mean motion
3.49492 °/min
Orbital period
103.01 mins
BSTAR
0.0024095
Loading maneuver chart data...
Computing Atmospheric mass density...
Loading historical data...
Loading historical data...
Loading historical data...
Loading historical data...
Loading historical data...
Loading historical data...
Loading historical data...

Documentation

Showing up to 5 results
|